Tracking 32579 objects as of 16-Dec-2025
HD Live streaming from Space Station
objects crossing your sky now

MOLNIYA 1-75

Track MOLNIYA 1-75 now!
MOLNIYA 1-75 is classified as:


NORAD ID: 19807
Int'l Code: 1989-014A
Perigee: 2,335.6 km
Apogee: 38,054.9 km
Inclination: 63.8 °
Period: 718.2 minutes
Semi major axis: 26566 km
RCS: 12.6191 m2 (large)
Launch date: February 15, 1989
Source: Commonwealth of Independent States (former USSR) (CIS)
Launch site: TYURATAM MISSILE AND SPACE COMPLEX (TTMTR)
Your satellite tracking list
Your tracking list is empty




NASA's NSSDC Master Catalog

Two Line Element Set (TLE):
1 19807U 89014A   25345.74102296  .00000773  00000-0  00000+0 0  9993
2 19807  63.8235 158.4774 6722689 256.9201  25.5473  2.00496701269524
Source of the keplerian elements: AFSPC